Simultaneous Nadir Overpasses (SNOs) Predictions

Prediction of SNOs near US between AQUA and NPP Satellite Orbit:

Table of predicted SNOs near US for the next 10.0 days since TLE Epoch: 9/14/2012
Index Date (AQUA) Time (AQUA) AQUA Lat,Lon Date (NPP) Time (NPP) NPP Lat,Lon Distance(km) Time Diff (sec)
1 09/18/2012 07:18:39 49.03, -76.35 09/18/2012 07:18:23 49.39, -78.58 166.58 16
2 09/18/2012 08:57:17 49.93,-100.70 09/18/2012 08:59:34 50.48,-103.47 206.09 137
3 09/20/2012 18:16:37 49.99, -80.18 09/20/2012 18:08:23 49.72, -81.70 113.01 494
4 09/20/2012 19:55:30 49.98,-104.90 09/20/2012 19:49:51 49.61,-107.03 158.21 339
5 09/20/2012 21:30:39 36.67,-124.99 09/20/2012 21:27:28 36.18,-127.51 232.32 191




NCC Satellite Simultaneous Nadir Overpasses (SNOs) Prediction Service
